Moses Lake, WA

7:04 AM PST on January 21, 2018 (GMT -0800)
Grant County International

Weather History for KMWH - April, 2015

Change the Weather History Date:

Monday, April 27, 2015

  Actual Average Record
Temperature  
Mean Temperature 55 °F 53 °F  
Max Temperature 73 °F 67 °F 79 °F (1980)
Min Temperature 37 °F 39 °F 28 °F (1999)
Degree Days  
Heating Degree Days 10 12  
Month to date heating degree days 402 410  
Since 1 July heating degree days 4677 5582  
Cooling Degree Days 0 0  
Month to date cooling degree days 0 0  
Year to date cooling degree days 0 0  
Growing Degree Days 5 (Base 50)    
Moisture  
Dew Point 35 °F    
Average Humidity 49    
Maximum Humidity 70    
Minimum Humidity 27    
Precipitation  
Precipitation 0.00 in 0.02 in 0.51 in (2002)
Month to date precipitation 0.21 0.64  
Year to date precipitation 2.57 3.36  
Sea Level Pressure  
Sea Level Pressure 30.23 in    
Wind  
Wind Speed 6 mph (ENE)    
Max Wind Speed 13 mph    
Max Gust Speed 18 mph    
Visibility 10 miles    
Events      
T = Trace of Precipitation, MM = Missing Value Source: NWS Daily Summary

Daily Weather History Graph

Daily Weather History Graph

Search for Another Location

Airport or City:

Trip Planner

Search our weather history database for the weather conditions in past years. The results will help you decide how hot, cold, wet, or windy it might be!

Date:

Astronomy

Apr. 27, 2015 Rise Set
Actual Time 5:48 AM PDT 8:02 PM PDT
Civil Twilight 5:14 AM PDT 8:36 PM PDT
Nautical Twilight 4:32 AM PDT 9:18 PM PDT
Astronomical Twilight 3:46 AM PDT 10:05 PM PDT
Moon 1:52 PM PDT (4/27) 2:55 AM PDT (4/27)
Length of Visible Light 15h 21m
Length of Day
14h 14m
Waxing Gibbous, 67% of the Moon is Illuminated
Apr 27
Waxing Gibbous
May 3
Full
May 11
Last Quarter
May 17
New
May 25
First Quarter

Hourly Weather History & Observations

Time (PDT) Temp. Windchill Dew Point Humidity Pressure Visibility Wind Dir Wind Speed Gust Speed Precip Events Conditions
12:52 AM 48.2 °F - 32.0 °F 54% 30.26 in 10.0 mi North 4.6 mph - N/A   Overcast
1:52 AM 46.9 °F - 30.0 °F 52% 30.27 in 10.0 mi Calm Calm - N/A   Partly Cloudy
2:52 AM 43.0 °F 40.3 °F 30.9 °F 62% 30.28 in 10.0 mi NNE 4.6 mph - N/A   Scattered Clouds
3:52 AM 41.0 °F 38.0 °F 28.0 °F 60% 30.28 in 10.0 mi ENE 4.6 mph - N/A   Clear
4:52 AM 37.9 °F 34.4 °F 28.0 °F 68% 30.30 in 10.0 mi North 4.6 mph - N/A   Partly Cloudy
5:52 AM 37.4 °F 32.8 °F 28.4 °F 70% 30.28 in 10.0 mi North 5.8 mph - N/A   Scattered Clouds
6:52 AM 44.1 °F 42.5 °F 30.0 °F 58% 30.31 in 10.0 mi NNW 3.5 mph - N/A   Clear
7:52 AM 48.9 °F - 30.0 °F 48% 30.32 in 10.0 mi North 3.5 mph - N/A   Clear
8:52 AM 51.8 °F - 32.0 °F 47% 30.32 in 10.0 mi ESE 4.6 mph - N/A   Clear
9:52 AM 57.9 °F - 36.0 °F 44% 30.32 in 10.0 mi East 5.8 mph - N/A   Clear
10:52 AM 63.0 °F - 39.9 °F 43% 30.31 in 10.0 mi East 9.2 mph - N/A   Clear
11:52 AM 66.0 °F - 41.0 °F 40% 30.31 in 10.0 mi SSW 5.8 mph - N/A   Clear
12:52 PM 69.8 °F - 39.2 °F 33% 30.28 in 10.0 mi ESE 8.1 mph - N/A   Clear
1:52 PM 71.1 °F - 35.1 °F 27% 30.26 in 10.0 mi ESE 8.1 mph - N/A   Clear
2:52 PM 72.0 °F - 39.0 °F 30% 30.24 in 10.0 mi East 8.1 mph - N/A   Clear
3:52 PM 72.0 °F - 41.0 °F 33% 30.20 in 10.0 mi South 5.8 mph - N/A   Clear
4:52 PM 73.4 °F - 41.0 °F 31% 30.17 in 10.0 mi North - - N/A   Clear
5:52 PM 72.0 °F - 39.0 °F 30% 30.16 in 10.0 mi Variable 3.5 mph - N/A   Clear
6:52 PM 71.6 °F - 37.4 °F 29% 30.13 in 10.0 mi SE 4.6 mph - N/A   Clear
7:52 PM 68.0 °F - 37.0 °F 32% 30.12 in 10.0 mi ESE 8.1 mph - N/A   Clear
8:52 PM 63.0 °F - 37.0 °F 38% 30.14 in 10.0 mi ESE 5.8 mph - N/A   Clear
9:52 PM 61.0 °F - 36.0 °F 39% 30.12 in 10.0 mi East 3.5 mph - N/A   Clear
10:52 PM 53.1 °F - 35.1 °F 50% 30.11 in 10.0 mi NNE 5.8 mph - N/A   Clear
11:52 PM 51.8 °F - 35.6 °F 54% 30.11 in 10.0 mi North 6.9 mph - N/A   Clear